METEOR-M2 2

Last updated on Sun Oct 06 2024 00:02:18 GMT+0000 (Coordinated Universal Time)

1 44387U 19038A 24279.54096997 .00001229 00000+0 55500-3 0 9991 2 44387 98.8415 249.2737 0001862 43.1507 316.9817 14.24004074273096
UTC large
Height (km)
Speed (km/s)
/
Latitude / Longitude
Inclination (degrees)
Orbital Period (minutes)
Azimuth
Elevation
Range (km)
Doppler Factor

Next 0 passes for location: London (51.5072 / 0.1276)

Sorry there are no passes over London.